N0AOL-13 Weather Reports


time (UTC)temp
C
wind
direction
speed
KPH
gust
KPH
rain 1hr
cm
rain 24hr
cm
rain mn
cm
humidity
%
barometer
mb
20260906212016 32 111 6.4 17.7 0.00 0.00 0.00 35 1013.2
20260906211524 32 71 9.7 17.7 0.00 0.00 0.00 35 1013.2
20260906211018 32 100 6.4 16.1 0.00 0.00 0.00 35 1013.3
20260906210519 32 105 9.7 17.7 0.00 0.00 0.00 35 1013.3
20260906210039 32 89 8.0 17.7 0.00 0.03 0.00 35 1013.4
20260906205517 32 118 6.4 19.3 0.00 0.03 0.00 35 1013.4
20260906205013 32 71 8.0 24.1 0.00 0.03 0.00 35 1013.4
20260906204526 32 90 9.7 24.1 0.00 0.03 0.00 35 1013.6
20260906204022 32 126 4.8 20.9 0.00 0.03 0.00 36 1013.7
20260906203516 32 101 9.7 20.9 0.00 0.03 0.00 36 1013.8
20260906203026 32 99 6.4 20.9 0.00 0.03 0.00 36 1013.8
20260906202518 32 98 11.3 20.9 0.00 0.03 0.00 36 1013.8
20260906202014 32 80 4.8 19.3 0.00 0.03 0.00 35 1013.8
20260906201528 32 65 6.4 22.5 0.00 0.03 0.00 36 1014.0
20260906201020 32 91 9.7 22.5 0.00 0.03 0.00 36 1014.0
20260906200517 32 94 8.0 17.7 0.00 0.03 0.00 36 1013.9
20260906200027 32 69 8.0 17.7 0.00 0.03 0.00 36 1014.0
20260906195520 32 111 9.7 20.9 0.00 0.03 0.00 36 1013.8
20260906195014 32 92 8.0 20.9 0.00 0.03 0.00 37 1013.8
20260906194528 32 57 11.3 20.9 0.00 0.03 0.00 35 1013.9
20260906194017 32 109 8.0 20.9 0.00 0.03 0.00 35 1014.0
20260906193518 32 119 9.7 22.5 0.00 0.03 0.00 36 1014.0
20260906193025 32 58 9.7 22.5 0.00 0.03 0.00 35 1014.0
20260906192518 32 92 9.7 19.3 0.00 0.03 0.00 36 1014.1
20260906192017 32 106 4.8 19.3 0.00 0.03 0.00 34 1014.2
20260906191539 32 82 8.0 19.3 0.00 0.03 0.00 36 1014.3
20260906191018 32 78 6.4 19.3 0.00 0.03 0.00 35 1014.3
20260906190517 32 80 6.4 17.7 0.00 0.03 0.00 36 1014.3
20260906190041 32 92 4.8 16.1 0.00 0.03 0.00 34 1014.3
20260906185518 32 61 3.2 19.3 0.00 0.03 0.00 35 1014.4
20260906185003 32 16 4.8 19.3 0.00 0.03 0.00 36 1014.5
20260906184520 32 133 11.3 19.3 0.00 0.03 0.00 36 1014.6
20260906184006 32 93 9.7 17.7 0.00 0.03 0.00 35 1014.6
20260906183503 32 9 6.4 16.1 0.00 0.03 0.00 36 1014.7
20260906183029 32 86 9.7 16.1 0.00 0.03 0.00 36 1014.7
20260906182510 32 62 6.4 16.1 0.00 0.03 0.00 35 1014.8
20260906182002 32 33 3.2 8.0 0.00 0.03 0.00 34 1014.8
20260906181531 32 334 1.6 12.9 0.00 0.03 0.00 35 1014.8
20260906181007 32 70 3.2 12.9 0.00 0.03 0.00 34 1014.9
20260906180504 32 64 3.2 9.7 0.00 0.03 0.00 35 1015.0
20260906180024 32 107 4.8 11.3 0.00 0.03 0.00 34 1015.0
20260906175509 31 167 4.8 11.3 0.00 0.03 0.00 35 1015.1
20260906175004 31 115 4.8 11.3 0.00 0.03 0.00 37 1015.1
20260906174519 31 74 4.8 9.7 0.00 0.03 0.00 36 1015.2
20260906174008 31 257 1.6 14.5 0.00 0.03 0.00 36 1015.3
20260906173508 31 98 6.4 14.5 0.00 0.03 0.00 35 1015.3
20260906173024 31 103 4.8 9.7 0.00 0.03 0.00 36 1015.4
20260906172506 31 63 4.8 14.5 0.00 0.03 0.00 37 1015.4
20260906172009 31 97 6.4 14.5 0.00 0.03 0.00 35 1015.5
20260906171524 31 126 4.8 12.9 0.00 0.03 0.00 35 1015.5
20260906171013 31 93 4.8 11.3 0.00 0.03 0.00 35 1015.6
20260906170512 31 77 4.8 11.3 0.00 0.03 0.00 36 1015.7
20260906170020 31 99 3.2 11.3 0.00 0.03 0.00 35 1015.8
20260906165508 31 87 3.2 14.5 0.00 0.03 0.00 35 1015.9
20260906165011 31 258 6.4 14.5 0.00 0.03 0.00 36 1016.0
20260906164527 30 148 4.8 11.3 0.00 0.03 0.00 37 1016.0
20260906164009 30 69 3.2 14.5 0.00 0.03 0.00 37 1016.1
20260906163510 30 37 4.8 14.5 0.00 0.03 0.00 36 1016.1
20260906163027 30 118 4.8 12.9 0.00 0.03 0.00 36 1016.2
20260906162510 30 115 3.2 12.9 0.00 0.03 0.00 36 1016.2
20260906162009 30 43 3.2 12.9 0.00 0.03 0.00 37 1016.2
20260906161529 30 263 3.2 11.3 0.00 0.03 0.00 1016.2
20260906161007 29 145 4.8 14.5 0.00 0.03 0.00 1016.1
20260906160511 29 101 4.8 14.5 0.00 0.03 0.00 40 1016.2
20260906160034 28 93 4.8 11.3 0.00 0.03 0.00 40 1016.2
20260906155510 28 102 3.2 11.3 0.00 0.03 0.00 41 1016.2
20260906155015 28 69 4.8 11.3 0.00 0.03 0.00 39 1016.2
20260906154538 28 34 3.2 9.7 0.00 0.03 0.00 41 1016.2
20260906154011 28 61 1.6 9.7 0.00 0.03 0.00 42 1016.3
20260906153513 28 113 3.2 11.3 0.00 0.03 0.00 42 1016.4
20260906153034 27 13 3.2 16.1 0.00 0.03 0.00 41 1016.4
20260906152510 27 46 6.4 16.1 0.00 0.03 0.00 41 1016.4
20260906152013 27 42 3.2 9.7 0.00 0.03 0.00 42 1016.4
20260906151528 27 74 4.8 11.3 0.00 0.03 0.00 42 1016.5
20260906151008 27 82 4.8 11.3 0.00 0.03 0.00 42 1016.4
20260906150510 27 138 3.2 9.7 0.00 0.03 0.00 42 1016.4
20260906150025 27 74 3.2 9.7 0.00 0.03 0.00 45 1016.5
20260906145511 27 11 3.2 6.4 0.00 0.03 0.00 44 1016.5
20260906145012 26 68 3.2 17.7 0.00 0.03 0.00 45 1016.6
20260906144527 26 5 3.2 17.7 0.00 0.03 0.00 46 1016.6
20260906144011 26 84 8.0 17.7 0.00 0.03 0.00 45 1016.7
20260906143512 26 234 4.8 14.5 0.00 0.03 0.00 47 1016.7
20260906143033 25 77 4.8 11.3 0.00 0.03 0.00 50 1016.7
20260906142514 25 59 3.2 11.3 0.00 0.03 0.00 54 1016.8
20260906142014 24 100 6.4 11.3 0.00 0.03 0.00 56 1016.7
20260906141525 23 84 1.6 9.7 0.00 0.03 0.00 63 1016.7
20260906141011 23 80 1.6 4.8 0.00 0.03 0.00 63 1016.7
20260906140517 22 76 1.6 4.8 0.00 0.03 0.00 65 1016.7
20260906140041 21 124 0.0 4.8 0.00 0.03 0.00 70 1016.7
20260906135509 20 124 0.0 4.8 0.00 0.03 0.00 71 1016.8
20260906135013 20 78 0.0 0.0 0.00 0.03 0.00 74 1016.8
20260906134529 19 78 0.0 3.2 0.00 0.03 0.00 74 1016.7
20260906134010 18 78 0.0 3.2 0.00 0.03 0.00 75 1016.7
20260906133515 18 243 0.0 0.0 0.00 0.03 0.00 77 1016.6
20260906133028 17 243 0.0 0.0 0.00 0.03 0.00 77 1016.7
20260906132508 17 243 0.0 0.0 0.00 0.03 0.00 78 1016.8
20260906132012 17 243 0.0 0.0 0.00 0.03 0.00 77 1016.7
20260906131529 17 240 0.0 0.0 0.00 0.03 0.00 79 1016.7
20260906131010 16 240 0.0 0.0 0.00 0.03 0.00 79 1016.7
20260906130518 16 240 0.0 0.0 0.00 0.03 0.00 79 1016.8
20260906130039 16 240 0.0 0.0 0.00 0.03 0.00 79 1016.8
20260906125510 16 240 0.0 0.0 0.00 0.03 0.00 78 1016.8
20260906125011 16 240 0.0 0.0 0.00 0.03 0.00 79 1016.8
20260906124504 16 240 0.0 0.0 0.00 0.03 0.00 78 1016.7
20260906124011 16 240 0.0 0.0 0.00 0.03 0.00 77 1016.6
20260906123503 16 240 0.0 0.0 0.00 0.03 0.00 77 1016.6
20260906123011 16 240 0.0 0.0 0.00 0.03 0.00 77 1016.6
20260906122511 16 240 0.0 0.0 0.00 0.03 0.00 77 1016.5
20260906122004 16 240 0.0 0.0 0.00 0.03 0.00 78 1016.5
20260906121505 16 240 0.0 0.0 0.00 0.03 0.00 78 1016.5
20260906121011 16 240 0.0 0.0 0.00 0.03 0.00 78 1016.5
20260906120507 16 240 0.0 0.0 0.00 0.03 0.00 78 1016.5
20260906120005 16 240 0.0 0.0 0.00 0.03 0.00 77 1016.4
20260906115511 17 240 0.0 0.0 0.00 0.03 0.00 77 1016.3
20260906115006 17 240 0.0 0.0 0.00 0.03 0.00 76 1016.2
20260906114508 17 240 0.0 0.0 0.00 0.03 0.00 77 1016.3
20260906114013 17 240 0.0 0.0 0.00 0.03 0.00 77 1016.3
20260906113504 17 240 0.0 0.0 0.00 0.03 0.00 77 1016.2
20260906113006 17 240 0.0 0.0 0.00 0.03 0.00 77 1016.3
20260906112512 17 240 0.0 0.0 0.00 0.03 0.00 78 1016.3
20260906112009 17 240 0.0 0.0 0.00 0.03 0.00 78 1016.2
20260906111518 16 240 0.0 0.0 0.00 0.03 0.00 79 1016.2
20260906111011 16 240 0.0 0.0 0.00 0.03 0.00 80 1016.1
20260906110508 16 240 0.0 3.2 0.00 0.03 0.00 79 1016.0
20260906110012 16 231 0.0 3.2 0.00 0.03 0.00 80 1016.0
20260906105513 16 202 0.0 3.2 0.00 0.03 0.00 80 1016.1
20260906105006 16 164 0.0 1.6 0.00 0.03 0.00 80 1016.2
20260906104512 16 219 1.6 1.6 0.00 0.03 0.00 81 1016.1
20260906104012 16 207 0.0 1.6 0.00 0.03 0.00 81 1016.2
20260906103506 16 207 0.0 1.6 0.00 0.03 0.00 81 1016.2
20260906103008 16 207 0.0 1.6 0.00 0.03 0.00 81 1016.1
20260906102512 16 207 0.0 0.0 0.00 0.03 0.00 81 1016.1
20260906102006 16 207 0.0 3.2 0.00 0.03 0.00 81 1016.2
20260906101508 16 207 0.0 3.2 0.00 0.03 0.00 82 1016.1
20260906101013 16 208 0.0 3.2 0.00 0.03 0.00 83 1016.1
20260906100507 16 90 0.0 4.8 0.00 0.03 0.00 81 1016.1
20260906100010 16 90 0.0 4.8 0.00 0.03 0.00 80 1016.1
20260906095511 16 140 0.0 0.0 0.00 0.03 0.00 82 1016.0
20260906095003 16 140 0.0 0.0 0.00 0.03 0.00 83 1016.0
20260906094513 16 140 0.0 0.0 0.00 0.03 0.00 83 1016.1
20260906094012 15 140 0.0 0.0 0.00 0.03 0.00 82 1016.1
20260906093508 16 56 0.0 0.0 0.00 0.03 0.00 80 1016.1
20260906093010 16 56 0.0 3.2 0.00 0.03 0.00 81 1016.0
20260906092513 16 56 0.0 3.2 0.00 0.03 0.00 80 1016.1
20260906092007 16 56 0.0 1.6 0.00 0.03 0.00 82 1016.1
20260906091517 16 293 0.0 0.0 0.00 0.03 0.00 81 1016.1
20260906091012 16 293 0.0 0.0 0.00 0.03 0.00 81 1016.0
20260906090509 16 293 0.0 1.6 0.00 0.03 0.00 80 1015.9
20260906090006 16 293 0.0 1.6 0.00 0.03 0.00 80 1015.8
20260906085514 16 293 0.0 1.6 0.00 0.03 0.00 79 1015.8
20260906085010 16 296 0.0 3.2 0.00 0.03 0.00 77 1015.7
20260906084516 17 292 0.0 3.2 0.00 0.03 0.00 78 1015.7
20260906084011 17 292 0.0 3.2 0.00 0.03 0.00 77 1015.8
20260906083509 17 292 1.6 3.2 0.00 0.03 0.00 78 1015.8
20260906083014 17 273 1.6 3.2 0.00 0.03 0.00 77 1016.1
20260906082513 17 246 0.0 3.2 0.00 0.03 0.00 78 1016.2
20260906082009 17 252 0.0 3.2 0.00 0.03 0.00 78 1016.1
20260906081524 17 221 0.0 3.2 0.00 0.03 0.00 77 1016.2
20260906081012 17 215 1.6 8.0 0.00 0.03 0.00 77 1016.2
20260906080508 17 295 4.8 8.0 0.00 0.03 0.00 78 1016.2
20260906080008 17 306 3.2 4.8 0.00 0.03 0.00 78 1016.2
20260906075514 16 275 1.6 4.8 0.00 0.03 0.00 79 1016.4
20260906075007 16 281 3.2 4.8 0.00 0.03 0.00 81 1016.5
20260906074508 16 274 0.0 0.0 0.00 0.03 0.00 80 1016.6
20260906074012 16 275 0.0 0.0 0.00 0.03 0.00 79 1016.5
20260906073508 16 275 0.0 0.0 0.00 0.03 0.00 79 1016.4
20260906073007 16 20 0.0 0.0 0.00 0.03 0.00 78 1016.5
20260906072512 16 20 0.0 0.0 0.00 0.03 0.00 78 1016.5
20260906072009 16 20 0.0 0.0 0.00 0.03 0.00 79 1016.5
20260906071508 16 20 0.0 0.0 0.00 0.03 0.00 79 1016.4
20260906071012 16 20 0.0 0.0 0.00 0.03 0.00 79 1016.4
20260906070507 16 20 0.0 0.0 0.00 0.03 0.00 78 1016.3
20260906070009 16 20 0.0 0.0 0.00 0.03 0.00 78 1016.2
20260906065513 16 20 0.0 0.0 0.00 0.03 0.00 77 1016.2
20260906065008 16 20 0.0 3.2 0.00 0.03 0.00 77 1016.3
20260906064506 16 20 0.0 3.2 0.00 0.03 0.00 77 1016.1
20260906064012 16 20 0.0 0.0 0.00 0.03 0.00 77 1016.2
20260906063508 16 20 0.0 0.0 0.00 0.03 0.00 76 1015.9
20260906063010 16 20 0.0 0.0 0.00 0.03 0.00 76 1015.9
20260906062511 16 20 0.0 0.0 0.00 0.03 0.00 76 1015.8
20260906062008 16 83 0.0 0.0 0.00 0.03 0.00 76 1015.9
20260906061508 17 83 0.0 0.0 0.00 0.03 0.00 74 1015.8
20260906061012 17 83 0.0 3.2 0.00 0.03 0.00 73 1015.7
20260906060511 17 83 0.0 4.8 0.00 0.03 0.00 72 1015.7
20260906060034 18 82 1.6 4.8 0.00 0.03 0.00 72 1015.8
20260906055512 17 270 0.0 0.0 0.00 0.03 0.03 72 1015.6
20260906055006 17 270 0.0 0.0 0.00 0.03 0.03 73 1015.6
20260906054534 17 270 0.0 0.0 0.00 0.03 0.03 73 1015.6
20260906054014 17 270 0.0 0.0 0.00 0.03 0.03 72 1015.7
20260906053507 17 270 0.0 0.0 0.00 0.03 0.03 73 1016.0
20260906053038 18 270 0.0 0.0 0.00 0.03 0.03 71 1016.1
20260906052512 18 270 0.0 0.0 0.00 0.03 0.03 70 1016.3
20260906052009 18 270 0.0 0.0 0.00 0.03 0.03 69 1016.3
20260906051535 18 270 0.0 0.0 0.00 0.03 0.03 69 1016.3
20260906051014 18 270 0.0 0.0 0.00 0.03 0.03 69 1016.4
20260906050507 19 270 0.0 0.0 0.00 0.03 0.03 66 1016.5
20260906050054 19 270 0.0 0.0 0.00 0.03 0.03 67 1016.6
20260906045515 19 270 0.0 4.8 0.00 0.03 0.03 66 1016.7
20260906045008 19 258 0.0 4.8 0.00 0.03 0.03 66 1016.6
20260906044532 19 264 1.6 3.2 0.00 0.03 0.03 67 1016.5
20260906044012 18 350 0.0 0.0 0.00 0.03 0.03 69 1016.5
20260906043510 18 350 0.0 0.0 0.00 0.03 0.03 68 1016.6
20260906043033 18 350 0.0 0.0 0.00 0.03 0.03 68 1016.7
20260906042513 18 350 0.0 0.0 0.00 0.03 0.03 68 1016.8
20260906042009 18 350 0.0 0.0 0.00 0.03 0.03 69 1016.7
20260906041534 18 350 0.0 0.0 0.00 0.03 0.03 70 1016.7
20260906041017 18 352 0.0 1.6 0.00 0.03 0.03 69 1016.5
20260906040510 18 352 0.0 1.6 0.00 0.03 0.03 68 1016.4
20260906040037 19 326 0.0 0.0 0.00 0.03 0.03 66 1016.4
20260906035512 19 326 0.0 0.0 0.00 0.03 0.03 66 1016.3
20260906035010 20 326 0.0 0.0 0.00 0.03 0.03 65 1016.2
20260906034508 20 326 0.0 3.2 0.00 0.03 0.03 64 1016.1
20260906034015 19 326 0.0 3.2 0.00 0.03 0.03 65 1016.2
20260906033507 19 326 0.0 3.2 0.00 0.03 0.03 66 1016.3
20260906033011 20 326 0.0 4.8 0.00 0.03 0.03 65 1016.2
20260906032515 20 326 1.6 4.8 0.00 0.03 0.03 64 1016.3
20260906032007 20 317 1.6 4.8 0.00 0.03 0.03 63 1016.3
20260906031514 20 283 0.0 0.0 0.00 0.03 0.03 64 1016.3
20260906031012 20 293 0.0 0.0 0.00 0.03 0.03 64 1016.2
20260906030512 20 286 0.0 0.0 0.00 0.03 0.03 65 1016.4
20260906030011 20 286 0.0 1.6 0.00 0.03 0.03 66 1016.4
20260906025512 20 286 0.0 3.2 0.00 0.03 0.03 63 1016.2
20260906025011 21 272 0.0 3.2 0.00 0.03 0.03 62 1016.2
20260906024510 21 248 0.0 1.6 0.00 0.03 0.03 61 1016.2
20260906024013 21 338 0.0 3.2 0.00 0.03 0.03 62 1016.2
20260906023508 21 338 0.0 3.2 0.00 0.03 0.03 62 1016.2
20260906023008 21 338 0.0 3.2 0.00 0.03 0.03 62 1016.0
20260906022515 21 338 0.0 3.2 0.00 0.03 0.03 62 1015.9
20260906022009 21 301 0.0 3.2 0.00 0.03 0.03 61 1015.8
20260906021512 22 251 0.0 3.2 0.00 0.03 0.03 60 1015.6
20260906021015 22 303 0.0 0.0 0.00 0.03 0.03 61 1015.5
20260906020511 22 259 0.0 0.0 0.00 0.03 0.03 59 1015.5
20260906020010 22 259 0.0 0.0 0.00 0.03 0.03 59 1015.6
20260906015513 22 259 0.0 1.6 0.00 0.03 0.03 57 1015.4
20260906015010 22 259 0.0 1.6 0.00 0.03 0.03 57 1015.4
20260906014510 22 240 0.0 0.0 0.00 0.03 0.03 58 1015.4
20260906014013 23 240 0.0 3.2 0.00 0.03 0.03 58 1015.4
20260906013510 23 214 0.0 3.2 0.00 0.03 0.03 58 1015.4
20260906013011 23 224 0.0 0.0 0.00 0.03 0.03 55 1015.4
20260906012515 24 224 0.0 0.0 0.00 0.03 0.03 56 1015.3
20260906012012 24 224 0.0 0.0 0.00 0.03 0.03 53 1015.3
20260906011511 24 224 0.0 0.0 0.00 0.03 0.03 53 1015.4
20260906011013 24 224 0.0 0.0 0.00 0.03 0.03 53 1015.3
20260906010516 25 224 0.0 0.0 0.00 0.03 0.03 53 1015.4
20260906010011 25 225 0.0 0.0 0.00 0.03 0.03 53 1015.5
20260906005517 25 224 0.0 1.6 0.00 0.03 0.03 54 1015.5
20260906005009 25 224 0.0 3.2 0.00 0.03 0.03 50 1015.6
20260906004512 25 224 0.0 3.2 0.00 0.03 0.03 50 1015.7
20260906004016 25 224 1.6 1.6 0.00 0.03 0.03 49 1015.7
20260906003514 25 218 1.6 3.2 0.00 0.03 0.03 49 1015.6
20260906003012 25 217 0.0 3.2 0.00 0.03 0.03 48 1015.8
20260906002518 26 200 1.6 3.2 0.00 0.03 0.03 50 1015.8
20260906002010 26 199 1.6 3.2 0.00 0.03 0.03 47 1015.8
20260906001512 26 198 1.6 6.4 0.00 0.03 0.03 47 1015.7
20260906001016 26 221 1.6 6.4 0.00 0.03 0.03 45 1015.6
20260906000510 27 128 1.6 9.7 0.00 0.03 0.03 44 1015.8
20260906000014 27 90 3.2 16.1 0.00 0.03 0.03 43 1015.9
20260905235515 28 86 3.2 16.1 0.00 0.03 0.03 40 1015.9
20260905235012 28 107 3.2 11.3 0.00 0.03 0.03 40 1015.9
20260905234513 28 144 3.2 11.3 0.00 0.03 0.03 40 1015.8
20260905234017 28 221 0.0 3.2 0.00 0.03 0.03 43 1015.6
20260905233510 29 221 0.0 3.2 0.00 0.03 0.03 43 1015.4
20260905233022 29 221 0.0 3.2 0.00 0.03 0.03 45 1015.2
20260905232519 29 221 0.0 3.2 0.00 0.03 0.03 43 1015.1
20260905232013 29 221 1.6 3.2 0.00 0.03 0.03 40 1015.1
20260905231512 30 262 1.6 3.2 0.00 0.03 0.03 38 1015.0
20260905231015 30 271 0.0 3.2 0.00 0.03 0.03 41 1014.9
20260905230511 29 142 0.0 3.2 0.00 0.03 0.03 42 1014.9
20260905230011 29 142 0.0 3.2 0.00 0.03 0.03 43 1015.0
20260905225514 30 142 0.0 3.2 0.00 0.03 0.03 46 1015.0
20260905225010 30 142 0.0 3.2 0.00 0.03 0.03 44 1015.0
20260905224514 30 140 0.0 3.2 0.00 0.03 0.03 43 1014.9
20260905224014 30 140 0.0 6.4 0.00 0.03 0.03 42 1014.9
20260905223515 30 140 1.6 6.4 0.00 0.03 0.03 42 1014.9
20260905223016 31 104 1.6 3.2 0.00 0.03 0.03 38 1014.9
20260905222514 31 162 0.0 3.2 0.00 0.03 0.03 40 1014.8
20260905222014 31 162 0.0 3.2 0.00 0.03 0.03 38 1014.8
20260905221515 31 162 0.0 3.2 0.00 0.03 0.03 39 1014.8
20260905221016 31 162 0.0 3.2 0.00 0.03 0.03 36 1014.7
20260905220513 31 162 0.0 6.4 0.00 0.03 0.03 33 1014.6
20260905220016 31 109 1.6 6.4 0.03 0.03 0.03 32 1014.7
20260905215516 31 86 3.2 8.0 0.03 0.03 0.03 32 1014.7
20260905215010 31 106 3.2 12.9 0.03 0.03 0.03 36 1014.6
20260905214514 30 120 4.8 12.9 0.03 0.03 0.03 36 1014.5
20260905214016 30 98 1.6 14.5 0.03 0.03 0.03 36 1014.4
20260905213512 30 138 1.6 14.5 0.03 0.03 0.03 33 1014.4
20260905213015 30 65 4.8 12.9 0.03 0.03 0.03 39 1014.4
20260905212514 29 77 3.2 19.3 0.03 0.03 0.03 43 1014.8